Simultaneous Nadir Overpasses (SNOs) Predictions

Prediction of SNOs between GOES-15 and TERRA Satellite Orbit:

Table of predicted SNOs for the next 14.0 days since TLE Epoch: 4/23/2012
Index Date Time (GOES-15) GOES-15 Lat,Lon TERRA Lat,Lon Distance(km) Time Diff (sec)
1 04/24/2012 07:21:53 0.12,-134.94 0.41,-133.42 171.57 80
2 04/24/2012 19:45:49 -0.11,-134.98 0.67,-138.58 410.30 80
3 04/26/2012 19:33:39 -0.12,-135.04 0.02,-135.63 67.47 80
4 04/28/2012 19:18:49 -0.12,-135.11 -0.63,-132.69 274.90 80
5 04/29/2012 07:42:53 0.12,-135.10 -0.50,-137.87 316.21 80
6 05/01/2012 07:28:03 0.12,-135.15 0.18,-134.93 25.70 80
7 05/03/2012 07:15:52 0.12,-135.20 0.81,-131.98 367.07 80
8 05/03/2012 19:39:48 -0.11,-135.24 0.27,-137.14 215.32 80
9 05/05/2012 19:24:57 -0.12,-135.28 -0.37,-134.18 125.13 80
10 05/06/2012 07:49:01 0.10,-135.27 -0.74,-139.37 466.45 80




NCC Satellite Simultaneous Nadir Overpasses (SNOs) Prediction Service
